Location: ????????
(55.6189°N, 38.3031°E)
Time: 01:39:45
(UTC+00:00)

Meteor 2-2 Rocket - Pass Details

Date: 15 November 2019
Orbit: 852 x 929 km, 81.3° (Epoch: 12 December)

Event Time Altitude Azimuth Distance (km) Brightness Sun altitude
Rises 02:26:42 0° 342° (NNW) 3,453 7.2 -21.3°
Enters shadow 02:27:46 - 341° (NNW) 3,046 6.9 -21.2°
Exits shadow 02:31:18 22° 327° (NNW) 1,790 5.6 -20.7°
Maximum altitude 02:34:34 45° 267° (W) 1,158 4.4 -20.2°
Drops below altitude 10° 02:39:52 10° 196° (SSW) 2,479 6.5 -19.5°
Sets 02:42:22 0° 190° (S) 3,413 7.3 -19.1°
